TimeCDT,TemperatureF,Dew PointF,Humidity,Sea Level PressureIn,VisibilityMPH,Wind Direction,Wind SpeedMPH,Gust SpeedMPH,PrecipitationIn,Events,Conditions,WindDirDegrees,DateUTC
12:54 AM,75.9,70.0,82,30.05,10.0,Calm,Calm,-,N/A,,Clear,0,2013-08-27 05:54:00
1:54 AM,73.9,70.0,87,30.04,10.0,West,4.6,-,N/A,,Clear,260,2013-08-27 06:54:00
2:54 AM,77.0,70.0,79,30.02,10.0,WSW,8.1,-,N/A,,Clear,240,2013-08-27 07:54:00
3:54 AM,73.9,70.0,87,30.04,10.0,Calm,Calm,-,N/A,,Clear,0,2013-08-27 08:54:00
4:54 AM,73.9,69.1,85,30.04,10.0,West,3.5,-,N/A,,Clear,270,2013-08-27 09:54:00
5:54 AM,72.0,69.1,91,30.04,10.0,Calm,Calm,-,N/A,,Clear,0,2013-08-27 10:54:00
6:54 AM,72.0,69.1,91,30.06,9.0,Calm,Calm,-,N/A,,Scattered Clouds,0,2013-08-27 11:54:00
7:54 AM,77.0,70.0,79,30.06,10.0,WSW,8.1,-,N/A,,Scattered Clouds,240,2013-08-27 12:54:00
8:54 AM,80.1,70.0,71,30.06,10.0,West,6.9,-,N/A,,Scattered Clouds,260,2013-08-27 13:54:00
9:54 AM,84.9,71.1,63,30.06,10.0,West,6.9,-,N/A,,Mostly Cloudy,260,2013-08-27 14:54:00
10:54 AM,87.1,71.1,59,30.05,10.0,Variable,6.9,-,N/A,,Mostly Cloudy,0,2013-08-27 15:54:00
11:54 AM,91.0,69.1,48,30.04,10.0,West,6.9,-,N/A,,Mostly Cloudy,260,2013-08-27 16:54:00
12:54 PM,91.0,66.9,45,30.02,10.0,WSW,8.1,-,N/A,,Mostly Cloudy,240,2013-08-27 17:54:00
1:54 PM,91.9,66.0,42,30.00,10.0,SSW,5.8,-,N/A,,Mostly Cloudy,210,2013-08-27 18:54:00
2:54 PM,95.0,66.9,40,29.98,10.0,WSW,8.1,-,N/A,,Mostly Cloudy,250,2013-08-27 19:54:00
3:54 PM,95.0,63.0,34,29.97,10.0,WSW,11.5,17.3,N/A,,Mostly Cloudy,240,2013-08-27 20:54:00
4:54 PM,95.0,64.9,37,29.96,10.0,WSW,9.2,-,N/A,,Mostly Cloudy,240,2013-08-27 21:54:00
5:54 PM,93.0,64.9,39,29.96,10.0,SW,11.5,-,N/A,,Mostly Cloudy,230,2013-08-27 22:54:00
6:54 PM,88.0,68.0,51,29.96,10.0,SSW,4.6,-,N/A,,Mostly Cloudy,210,2013-08-27 23:54:00
7:54 PM,84.0,68.0,58,29.96,10.0,SSW,6.9,-,N/A,,Clear,200,2013-08-28 00:54:00
8:54 PM,82.0,66.9,60,29.98,10.0,SSW,8.1,-,N/A,,Clear,200,2013-08-28 01:54:00
9:54 PM,77.0,66.9,71,29.99,10.0,West,4.6,-,N/A,,Clear,260,2013-08-28 02:54:00
10:54 PM,77.0,66.9,71,29.99,10.0,West,5.8,-,N/A,,Clear,260,2013-08-28 03:54:00
11:54 PM,73.9,66.9,79,29.98,10.0,WSW,5.8,-,N/A,,Clear,250,2013-08-28 04:54:00